Weather History for Barter Island, AK

Change the Weather History Date:

Thursday, March 27, 2014

  Actual Average Record
Temperature  
Mean Temperature 5 °F -  
Max Temperature -2 °F -1 °F 10 °F (1999)
Min Temperature -5 °F -15 °F -36 °F (2004)
Degree Days  
Heating Degree Days 60    
Moisture  
Dew Point -1 °F    
Average Humidity 81    
Maximum Humidity 88    
Minimum Humidity 70    
Precipitation  
Precipitation 0.00 in - - ()
Sea Level Pressure  
Sea Level Pressure 30.06 in    
Wind  
Wind Speed 10 mph (ESE)    
Max Wind Speed 18 mph    
Max Gust Speed -    
Visibility 10 miles    
Events      
Averages and records for this station are not official NWS values.
T = Trace of Precipitation, MM = Missing Value Source: NWS Daily Summary

Daily Weather History Graph

Daily Weather History Graph

Search for Another Location

Airport:

Trip Planner

Search our weather history database for the weather conditions in past years. The results will help you decide how hot, cold, wet, or windy it might be!

Date:

Astronomy

Mar. 27, 2014 Rise Set
Actual Time 6:59 AM AKDT 8:22 PM AKDT
Civil Twilight 5:55 AM AKDT 9:26 PM AKDT
Nautical Twilight 4:27 AM AKDT 10:56 PM AKDT
Astronomical Twilight 2:12 AM AKDT 1:06 AM AKDT
Moon 6:39 AM AKDT (3/27) 3:49 PM AKDT (3/27)
Length of Visible Light 15h 31m
Length of Day
13h 22m
Waning Crescent, 12% of the Moon is Illuminated
Mar 27
Waning Crescent
Mar 30
New
Apr 7
First Quarter
Apr 14
Full
Apr 21
Last Quarter

Hourly Weather History & Observations

Time (AKDT) Temp. Windchill Dew Point Humidity Pressure Visibility Wind Dir Wind Speed Gust Speed Precip Events Conditions
12:01 AM 5.0 °F -14.7 °F 1.0 °F 84% 30.03 in 10.0 mi East 18.4 mph - N/A   Clear
1:01 AM 6.1 °F -13.3 °F 1.0 °F 80% 30.03 in 10.0 mi East 18.4 mph - N/A   Clear
2:01 AM 3.0 °F -16.1 °F -0.9 °F 84% 30.03 in 10.0 mi East 16.1 mph - N/A   Clear
3:01 AM 1.0 °F -16.6 °F -2.0 °F 87% 30.04 in 10.0 mi East 12.7 mph - N/A   Clear
4:01 AM -0.0 °F -15.3 °F -2.9 °F 88% 30.04 in 10.0 mi ESE 9.2 mph - N/A   Clear
5:01 AM -4.0 °F -16.3 °F -7.1 °F 87% 30.04 in 10.0 mi ESE 5.8 mph - N/A   Clear
6:01 AM -5.1 °F -13.6 °F -9.0 °F 83% 30.04 in 10.0 mi East 3.5 mph - N/A   Clear
7:01 AM -0.9 °F -14.1 °F -4.0 °F 87% 30.04 in 10.0 mi ESE 6.9 mph - N/A   Clear
8:01 AM -2.0 °F -10.1 °F -7.1 °F 79% 30.04 in 10.0 mi SSW 3.5 mph - N/A   Clear
9:01 AM -2.0 °F -16.6 °F -6.0 °F 83% 30.04 in 10.0 mi ESE 8.1 mph - N/A   Clear
10:01 AM -0.9 °F -16.4 °F -6.0 °F 79% 30.04 in 10.0 mi ESE 9.2 mph - N/A   Clear
11:01 AM 1.9 °F -11.8 °F -4.0 °F 76% 30.05 in 10.0 mi ESE 8.1 mph - N/A   Clear
12:01 PM 3.9 °F -9.4 °F -0.9 °F 80% 30.05 in 10.0 mi ESE 8.1 mph - N/A   Clear
1:01 PM 8.1 °F -3.2 °F 3.0 °F 80% 30.06 in 10.0 mi East 6.9 mph - N/A   Clear
2:01 PM 10.0 °F -2.9 °F 5.0 °F 80% 30.06 in 10.0 mi East 9.2 mph - N/A   Clear
3:01 PM 12.0 °F 2.7 °F 6.1 °F 77% 30.07 in 10.0 mi SE 5.8 mph - N/A   Clear
4:01 PM 14.0 °F - 7.0 °F 74% 30.07 in 10.0 mi Calm Calm - N/A   Clear
5:01 PM 10.9 °F 4.7 °F 5.0 °F 77% 30.08 in 10.0 mi Variable 3.5 mph - N/A   Clear
6:01 PM 15.1 °F 9.4 °F 7.0 °F 70% 30.08 in 10.0 mi ESE 3.5 mph - N/A   Clear
7:01 PM 12.0 °F 5.9 °F 5.0 °F 73% 30.09 in 10.0 mi ESE 3.5 mph - N/A   Clear
8:01 PM 5.0 °F - -0.0 °F 80% 30.10 in 10.0 mi Calm Calm - N/A   Clear
9:01 PM -0.0 °F -7.9 °F -5.1 °F 79% 30.09 in 10.0 mi South 3.5 mph - N/A   Clear
10:01 PM -0.0 °F -11.6 °F -4.0 °F 83% 30.09 in 10.0 mi WSW 5.8 mph - N/A   Clear
11:01 PM 1.0 °F -12.9 °F -2.0 °F 87% 30.10 in 10.0 mi WNW 8.1 mph - N/A   Clear